Regional Weather Roundup
Issued by NWS Little Rock, AR

Current Version | Previous Version | Text Only | Print | Product List | Glossary On
Versions: 1 2 3 4 5 6 7 8 9 10 11 12 13 14 15 16 17 18 19 20 21 22 23 24 25 26 27 28 29 30 31 32 33 34 35 36 37 38 39 40 41 42 43 44 45 46 47 48 49 50
000
ASUS44 KLZK 160205
RWRLZK

WEATHER ROUNDUP FOR ARKANSAS
NATIONAL WEATHER SERVICE LITTLE ROCK AR
900 PM CDT WED AUG 15 2018

NOTE: "FAIR" INDICATES FEW OR NO CLOUDS BELOW 12,000 FEET WITH NO
SIGNIFICANT WEATHER AND/OR OBSTRUCTIONS TO VISIBILITY.

ARZ001-003-010-029-160300-
NORTHWEST ARKANSAS

CITY           SKY/WX    TMP DP  RH WIND       PRES   REMARKS
FAYETTEVILLE   PTCLDY    74  72  93 S6        29.94R
FORT SMITH     MOCLDY    75  73  93 NE7       29.90S
HARRISON       CLEAR     73  70  90 S6        29.96R
BENTONVILLE    CLEAR     75  72  90 S5        29.96R
ROGERS         CLEAR     75  72  90 S6        29.95R
SILOAM SPGS    PTCLDY    75  73  93 S5        29.94R
HIGHFILL       CLEAR     75  70  84 S6        29.94R
SPRINGDALE     CLEAR     75  75 100 S6        29.95S
$$

ARZ004-005-016-160300-
NORTH CENTRAL ARKANSAS

CITY           SKY/WX    TMP DP  RH WIND       PRES   REMARKS
BATESVILLE     LGT RAIN  77  74  90 E6        29.96R
FLIPPIN        CLEAR     76  71  85 CALM      29.94S
MTN HOME       MOCLDY    75  71  87 S7        29.94R
$$

ARZ040-041-160300-
WEST CENTRAL ARKANSAS

CITY           SKY/WX    TMP DP  RH WIND       PRES   REMARKS
MENA           CLOUDY    81  81 100 CALM      29.95S HX  91
MOUNT IDA      PTCLDY    79  79 100 CALM      29.92R
$$

ARZ009-017-025-026-028-160300-
NORTHEAST ARKANSAS

CITY           SKY/WX    TMP DP  RH WIND       PRES   REMARKS
CORNING        CLOUDY    77  75  94 S6        29.95S
JONESBORO      CLOUDY    81  77  88 S3        29.95R HX  88
WALNUT RIDGE   RAIN      78  74  87 S3        29.95R
BLYTHEVILLE    MOCLDY    82  70  66 SW5       29.96R HX  86
$$

ARZ022-023-033-042-044-160300-
CENTRAL ARKANSAS

CITY           SKY/WX    TMP DP  RH WIND       PRES   REMARKS
LITTLE ROCK    CLOUDY    78  78 100 S7        29.93S
N LITTLE ROCK    N/A     79  76  90 CALM      29.95R
JACKSONVILLE   CLOUDY    80  78  94 SE3       29.92S HX  85
CONWAY           N/A     79  77  94 CALM      29.92S
SEARCY         CLOUDY    78  78 100 N3        29.94S
HOT SPRINGS    PTCLDY    82  77  84 E3        29.93S HX  90
RUSSELLVILLE   CLEAR     75  75 100 CALM      29.92S
CLINTON        CLOUDY    75  75 100 CALM      29.95R THUNDER
$$

ARZ036-160300-
EAST ARKANSAS

CITY           SKY/WX    TMP DP  RH WIND       PRES   REMARKS
WEST MEMPHIS   LGT RAIN  83  77  82 CALM      29.95R HX  92
$$

ARZ050-053-066-070-073-160300-
SOUTHWEST ARKANSAS

CITY           SKY/WX    TMP DP  RH WIND       PRES   REMARKS
ARKADELPHIA    FAIR      81  78  91 CALM      29.93R HX  89
CAMDEN         FAIR      81  73  78 CALM      29.92S HX  85
TEXARKANA      CLOUDY    85  71  63 S7        29.92R HX  90
EL DORADO      FAIR      84  73  69 CALM      29.94R HX  90
DE QUEEN       CLEAR     81  78  91 CALM      29.89R HX  89
$$

ARZ056-057-069-160300-
SOUTHEAST ARKANSAS

CITY           SKY/WX    TMP DP  RH WIND       PRES   REMARKS
PINE BLUFF     FAIR      82  76  81 S5        29.94R HX  89
STUTTGART      FAIR      83  76  79 SE6       29.95R HX  91
MONTICELLO     FAIR      85  73  67 S3        29.95R HX  91

$$





USA.gov is the U.S. government's official web portal to all federal, state and local government web resources and services.